Volver al catálogo

CZ-6A DEB

ActivoPO
NORAD 61356·DEBRIS·🇨🇳 China

Lanzado Aug 6, 2024 desde Taiyuan Satellite Launch Center

Loading…

Próximos Pases (próximas 24 horas)

TLE

ActualizadoSource: Space-Track

Época: Sep 14, 2026, 06:28 UTC

1 61356U 24140VV  26257.26973768  .00001187  00000-0  47562-3 0  9996
2 61356  88.9663 260.9670 0034088 279.5036  80.2306 14.27417529105678

Sigue CZ-6A DEB en tiempo real con AllMySat

Download on the App Store